Staples, MN

10:57 PM CST on February 06, 2016 (GMT -0600)
Staples Municipal

Weather History for KSAZ - February, 2014

Change the Weather History Date:

Sunday, February 23, 2014

  Actual Average Record
Temperature  
Mean Temperature 4 °F -  
Max Temperature 12 °F 26 °F 48 °F (1998)
Min Temperature -4 °F 10 °F -23 °F (2015)
Degree Days  
Heating Degree Days 61    
Moisture  
Dew Point -4 °F    
Average Humidity 74    
Maximum Humidity 85    
Minimum Humidity 57    
Precipitation  
Precipitation 0.00 in - - ()
Sea Level Pressure  
Sea Level Pressure 30.16 in    
Wind  
Wind Speed 12 mph (WNW)    
Max Wind Speed 23 mph    
Max Gust Speed 29 mph    
Visibility 10 miles    
Events      
Averages and records for this station are not official NWS values.
T = Trace of Precipitation, MM = Missing Value Source: NWS Daily Summary

Daily Weather History Graph

Daily Weather History Graph

Search for Another Location

Airport or City:

Trip Planner

Search our weather history database for the weather conditions in past years. The results will help you decide how hot, cold, wet, or windy it might be!

Date:

Astronomy

Feb. 23, 2014 Rise Set
Actual Time 7:09 AM CST 5:56 PM CST
Civil Twilight 6:38 AM CST 6:27 PM CST
Nautical Twilight 6:03 AM CST 7:02 PM CST
Astronomical Twilight 5:28 AM CST 7:37 PM CST
Moon 2:18 AM CST (2/23) 11:49 AM CST (2/23)
Length of Visible Light 11h 48m
Length of Day
10h 47m
Last Quarter, 38% of the Moon is Illuminated
Feb 23
Last Quarter
Mar 1
New
Mar 8
First Quarter
Mar 16
Full
Mar 23
Last Quarter

Hourly Weather History & Observations

Time (CST) Temp. Windchill Dew Point Humidity Pressure Visibility Wind Dir Wind Speed Gust Speed Precip Events Conditions
12:13 AM -2.2 °F -16.8 °F -7.6 °F 78% 30.06 in 10.0 mi West 8.1 mph - N/A   Clear
12:33 AM -2.2 °F -18.0 °F -7.6 °F 78% 30.07 in 10.0 mi West 9.2 mph - N/A   Clear
12:54 AM -2.2 °F -16.8 °F -7.6 °F 78% 30.07 in 10.0 mi West 8.1 mph - N/A   Clear
1:13 AM -2.2 °F -16.8 °F -7.6 °F 78% 30.08 in 10.0 mi West 8.1 mph - N/A   Clear
1:33 AM -2.2 °F -16.8 °F -5.8 °F 85% 30.08 in 10.0 mi West 8.1 mph - N/A   Clear
1:54 AM -2.2 °F -18.0 °F -7.6 °F 78% 30.08 in 10.0 mi West 9.2 mph - N/A   Clear
2:13 AM -2.2 °F -18.0 °F -7.6 °F 78% 30.09 in 10.0 mi West 9.2 mph - N/A   Clear
2:33 AM -2.2 °F -18.0 °F -7.6 °F 78% 30.09 in 10.0 mi West 9.2 mph - N/A   Clear
2:54 AM -2.2 °F -19.9 °F -7.6 °F 78% 30.09 in 10.0 mi West 11.5 mph - N/A   Clear
3:13 AM -2.2 °F -18.9 °F -7.6 °F 78% 30.09 in 10.0 mi West 10.4 mph - N/A   Clear
3:33 AM -2.2 °F -18.9 °F -7.6 °F 78% 30.09 in 10.0 mi West 10.4 mph - N/A   Clear
3:53 AM -2.2 °F -18.9 °F -7.6 °F 78% 30.09 in 10.0 mi West 10.4 mph - N/A   Clear
4:14 AM -2.2 °F -18.9 °F -7.6 °F 78% 30.10 in 10.0 mi West 10.4 mph - N/A   Clear
4:33 AM -2.2 °F -18.9 °F -7.6 °F 78% 30.10 in 10.0 mi West 10.4 mph - N/A   Clear
4:53 AM -4.0 °F -22.1 °F -7.6 °F 85% 30.11 in 10.0 mi West 11.5 mph - N/A   Clear
5:14 AM -4.0 °F -22.1 °F -7.6 °F 85% 30.11 in 10.0 mi West 11.5 mph - N/A   Clear
5:33 AM -4.0 °F -21.2 °F -7.6 °F 85% 30.12 in 10.0 mi West 10.4 mph - N/A   Clear
5:53 AM -2.2 °F -18.9 °F -7.6 °F 78% 30.12 in 10.0 mi West 10.4 mph - N/A   Mostly Cloudy
6:14 AM -2.2 °F -18.9 °F -5.8 °F 85% 30.12 in 10.0 mi West 10.4 mph - N/A   Overcast
6:33 AM -2.2 °F -19.9 °F -5.8 °F 85% 30.12 in 10.0 mi West 11.5 mph - N/A   Overcast
6:53 AM -2.2 °F -19.9 °F -5.8 °F 85% 30.12 in 10.0 mi West 11.5 mph - N/A   Overcast
7:14 AM -0.4 °F -16.7 °F -5.8 °F 78% 30.12 in 10.0 mi West 10.4 mph 16.1 mph N/A   Overcast
7:33 AM -0.4 °F -16.7 °F -5.8 °F 78% 30.12 in 10.0 mi West 10.4 mph - N/A   Overcast
7:53 AM -2.2 °F -18.0 °F -7.6 °F 78% 30.13 in 10.0 mi West 9.2 mph - N/A   Mostly Cloudy
8:13 AM -2.2 °F -18.9 °F -5.8 °F 85% 30.14 in 10.0 mi West 10.4 mph - N/A   Scattered Clouds
8:33 AM -0.4 °F -15.7 °F -5.8 °F 78% 30.14 in 10.0 mi West 9.2 mph - N/A   Clear
8:54 AM -0.4 °F -17.6 °F -5.8 °F 78% 30.15 in 10.0 mi West 11.5 mph - N/A   Clear
9:13 AM 1.4 °F -15.3 °F -5.8 °F 72% 30.15 in 10.0 mi West 11.5 mph - N/A   Clear
9:33 AM 3.2 °F -12.2 °F -4.0 °F 72% 30.15 in 10.0 mi West 10.4 mph - N/A   Clear
9:54 AM 3.2 °F -13.9 °F -2.2 °F 78% 30.15 in 10.0 mi West 12.7 mph - N/A   Clear
10:13 AM 5.0 °F -11.6 °F -2.2 °F 72% 30.16 in 10.0 mi West 12.7 mph - N/A   Clear
10:33 AM 6.8 °F -9.3 °F -0.4 °F 72% 30.16 in 10.0 mi West 12.7 mph 17.3 mph N/A   Clear
10:54 AM 8.6 °F -7.0 °F -0.4 °F 67% 30.16 in 10.0 mi West 12.7 mph - N/A   Clear
11:13 AM 8.6 °F -7.7 °F -0.4 °F 67% 30.16 in 10.0 mi West 13.8 mph - N/A   Clear
11:33 AM 8.6 °F -7.7 °F 1.4 °F 73% 30.16 in 10.0 mi West 13.8 mph - N/A   Clear
11:53 AM 10.4 °F -8.2 °F 1.4 °F 67% 30.16 in 10.0 mi West 19.6 mph 23.0 mph N/A   Clear
12:14 PM 10.4 °F -8.6 °F 1.4 °F 67% 30.16 in 10.0 mi WNW 20.7 mph 26.5 mph N/A   Clear
12:33 PM 10.4 °F -8.2 °F 1.4 °F 67% 30.17 in 10.0 mi WNW 19.6 mph 24.2 mph N/A   Clear
12:53 PM 10.4 °F -8.2 °F 1.4 °F 67% 30.16 in 10.0 mi WNW 19.6 mph 26.5 mph N/A   Clear
1:14 PM 12.2 °F -6.3 °F 1.4 °F 62% 30.16 in 10.0 mi West 20.7 mph 24.2 mph N/A   Clear
1:33 PM 12.2 °F -6.3 °F -0.4 °F 57% 30.16 in 10.0 mi WNW 20.7 mph 27.6 mph N/A   Clear
1:53 PM 12.2 °F -7.1 °F -0.4 °F 57% 30.16 in 10.0 mi WNW 23.0 mph - N/A   Clear
2:14 PM 12.2 °F -7.1 °F -0.4 °F 57% 30.17 in 10.0 mi WNW 23.0 mph 27.6 mph N/A   Clear
2:33 PM 10.4 °F -8.6 °F -0.4 °F 62% 30.17 in 10.0 mi WNW 20.7 mph 26.5 mph N/A   Clear
2:53 PM 10.4 °F -8.6 °F -0.4 °F 62% 30.17 in 10.0 mi West 20.7 mph 28.8 mph N/A   Clear
3:13 PM 10.4 °F -7.7 °F 1.4 °F 67% 30.17 in 10.0 mi WNW 18.4 mph 25.3 mph N/A   Clear
3:33 PM 10.4 °F -8.6 °F 1.4 °F 67% 30.18 in 10.0 mi WNW 20.7 mph 26.5 mph N/A   Clear
3:54 PM 10.4 °F -8.2 °F 1.4 °F 67% 30.18 in 10.0 mi WNW 19.6 mph - N/A   Clear
4:14 PM 10.4 °F -7.7 °F 1.4 °F 67% 30.18 in 10.0 mi WNW 18.4 mph 24.2 mph N/A   Clear
4:33 PM 10.4 °F -8.2 °F -0.4 °F 62% 30.18 in 10.0 mi WNW 19.6 mph 24.2 mph N/A   Clear
4:54 PM 8.6 °F -10.0 °F -0.4 °F 67% 30.18 in 10.0 mi WNW 18.4 mph 21.9 mph N/A   Clear
5:14 PM 8.6 °F -7.7 °F -0.4 °F 67% 30.19 in 10.0 mi WNW 13.8 mph - N/A   Clear
5:33 PM 8.6 °F -8.3 °F -0.4 °F 67% 30.19 in 10.0 mi WNW 15.0 mph - N/A   Clear
5:53 PM 6.8 °F -8.6 °F -0.4 °F 72% 30.20 in 10.0 mi WNW 11.5 mph - N/A   Clear
6:14 PM 6.8 °F -9.3 °F -0.4 °F 72% 30.20 in 10.0 mi WNW 12.7 mph 19.6 mph N/A   Clear
6:33 PM 6.8 °F -9.3 °F -0.4 °F 72% 30.21 in 10.0 mi WNW 12.7 mph - N/A   Clear
6:53 PM 5.0 °F -10.8 °F -2.2 °F 72% 30.21 in 10.0 mi WNW 11.5 mph - N/A   Clear
7:14 PM 3.2 °F -14.6 °F -2.2 °F 78% 30.21 in 10.0 mi WNW 13.8 mph - N/A   Clear
7:33 PM 3.2 °F -15.3 °F -2.2 °F 78% 30.21 in 10.0 mi WNW 15.0 mph - N/A   Clear
7:53 PM 3.2 °F -12.2 °F -2.2 °F 78% 30.21 in 10.0 mi West 10.4 mph - N/A   Clear
8:14 PM 3.2 °F -14.6 °F -2.2 °F 78% 30.21 in 10.0 mi WNW 13.8 mph 17.3 mph N/A   Clear
8:33 PM 3.2 °F -14.6 °F -2.2 °F 78% 30.21 in 10.0 mi WNW 13.8 mph - N/A   Clear
8:53 PM 3.2 °F -14.6 °F -2.2 °F 78% 30.21 in 10.0 mi WNW 13.8 mph - N/A   Clear
9:13 PM 1.4 °F -15.3 °F -2.2 °F 85% 30.22 in 10.0 mi WNW 11.5 mph - N/A   Clear
9:34 PM 1.4 °F -15.3 °F -2.2 °F 85% 30.22 in 10.0 mi WNW 11.5 mph - N/A   Clear
9:53 PM 1.4 °F -16.1 °F -4.0 °F 78% 30.22 in 10.0 mi WNW 12.7 mph - N/A   Clear
10:13 PM 1.4 °F -15.3 °F -5.8 °F 72% 30.22 in 10.0 mi WNW 11.5 mph - N/A   Clear
10:34 PM -0.4 °F -16.7 °F -5.8 °F 78% 30.22 in 10.0 mi WNW 10.4 mph - N/A   Clear
10:53 PM -0.4 °F -17.6 °F -5.8 °F 78% 30.22 in 10.0 mi WNW 11.5 mph - N/A   Clear
11:13 PM -0.4 °F -17.6 °F -5.8 °F 78% 30.22 in 10.0 mi WNW 11.5 mph - N/A   Clear
11:34 PM -0.4 °F -16.7 °F -5.8 °F 78% 30.22 in 10.0 mi WNW 10.4 mph - N/A   Clear
11:53 PM -2.2 °F -18.9 °F -7.6 °F 78% 30.22 in 10.0 mi WNW 10.4 mph - N/A   Clear